"America/Chicago Time","Lifetime Energy (kWh)","Power (W)","AC Volts RMS (V) ","AC Amps RMS (mA)","Grid Frequency (Hz)","Inverter Temperature (C)"
"03/12/12 08:48:58","35.1995","13.7","212.43","105","60.03","8"
"03/12/12 08:53:59","35.2","0.0","212.76","219","60.03","8"
"03/12/12 08:58:58","35.2008","14.7","212.77","27","60.03","9"
"03/12/12 09:03:58","35.2018","15.8","213.39","71","60.0","9"
"03/12/12 09:08:59","35.2028","12.5","213.45","164","60.03","9"
"03/12/12 09:18:58","35.205","15.3","212.84","18","60.0","9"
"03/12/12 09:23:57","35.2057","0.0","212.54","0","60.03","9"
"03/12/12 09:28:58","35.2064","14.6","212.42","10","60.0","9"
"03/12/12 09:33:59","35.2073","17.2","213.3","234","60.0","9"
"03/12/12 09:38:59","35.2089","27.3","213.04","64","60.03","9"
"03/12/12 09:43:59","35.2104","18.0","212.27","31","60.03","9"
"03/12/12 09:48:59","35.2119","14.8","213.02","143","60.03","9"
"03/12/12 09:53:59","35.2137","37.9","213.15","32","60.03","10"
"03/12/12 09:58:57","35.2158","33.1","213.6","85","60.03","10"
"03/12/12 10:03:58","35.2188","12.0","212.87","7","60.0","10"
"03/12/12 10:08:57","35.2204","14.4","212.37","315","60.03","10"
"03/12/12 10:13:58","35.2222","24.2","212.68","210","60.03","10"
"03/12/12 10:18:58","35.2241","15.7","212.64","124","60.03","10"
"03/12/12 10:23:59","35.2262","36.4","214.14","172","60.0","11"
"03/12/12 10:28:58","35.2292","32.3","214.19","315","60.03","11"
"03/12/12 10:33:58","35.2326","49.9","213.47","298","60.03","11"
"03/12/12 10:38:58","35.236","29.4","213.22","189","60.03","11"
"03/12/12 10:43:59","35.2386","28.8","213.29","158","60.03","11"
"03/12/12 10:48:59","35.2412","39.5","213.61","181","60.0","11"
"03/12/12 10:53:59","35.2439","34.2","213.05","252","60.03","12"
"03/12/12 10:58:59","35.246","25.8","213.29","260","60.03","12"
"03/12/12 11:03:58","35.2476","20.9","213.62","266","60.03","12"
"03/12/12 11:08:58","35.2493","22.4","213.75","224","60.03","12"
"03/12/12 11:13:58","35.2512","33.5","213.93","122","60.03","12"
"03/12/12 11:18:58","35.2528","15.1","214.07","77","60.0","11"
"03/12/12 11:23:58","35.2541","31.7","213.67","174","60.03","11"
"03/12/12 11:28:59","35.2567","28.1","214.17","201","60.0","11"
"03/12/12 11:33:59","35.2589","30.7","213.36","103","60.0","11"
"03/12/12 11:38:59","35.261","27.2","213.34","159","60.03","11"
"03/12/12 11:43:57","35.2639","42.2","213.97","123","60.03","11"
"03/12/12 11:48:58","35.2673","41.1","213.75","281","60.03","11"
"03/12/12 11:53:58","35.2694","33.1","213.57","245","60.03","11"
"03/12/12 11:58:59","35.2714","27.8","213.7","249","60.03","11"
"03/12/12 12:03:58","35.2739","39.3","213.42","230","60.03","11"
"03/12/12 12:08:58","35.2773","55.1","214.07","267","60.03","12"
"03/12/12 12:13:58","35.2813","45.6","214.14","393","60.0","12"
"03/12/12 12:18:59","35.2852","57.9","214.98","169","60.03","13"
"03/12/12 12:23:58","35.289","45.9","214.42","382","60.03","13"
"03/12/12 12:28:58","35.2928","56.2","213.6","382","60.03","13"
"03/12/12 12:33:58","35.2959","37.9","214.1","141","60.03","13"
"03/12/12 12:38:58","35.299","36.0","213.79","336","60.07","13"
"03/12/12 12:43:59","35.3018","26.3","213.05","143","60.03","14"
"03/12/12 12:48:57","35.3041","30.5","213.09","77","60.07","13"
"03/12/12 12:53:59","35.3073","44.9","214.14","362","60.0","13"
"03/12/12 12:58:59","35.3106","37.0","214.35","246","60.03","14"
"03/12/12 13:03:59","35.3133","29.9","214.21","104","60.0","13"
"03/12/12 13:08:59","35.3155","13.2","213.62","24","60.0","13"
"03/12/12 13:13:58","35.3173","32.8","213.28","183","60.03","13"
"03/12/12 13:18:59","35.3204","38.1","213.68","131","60.03","13"
"03/12/12 13:23:59","35.3242","39.9","214.54","200","60.07","13"
"03/12/12 13:28:58","35.3281","57.8","213.84","335","60.0","14"
"03/12/12 13:33:59","35.332","55.5","212.98","349","60.07","15"
"03/12/12 13:38:59","35.3359","47.8","213.5","193","60.03","15"
"03/12/12 13:43:58","35.3395","47.5","214.83","301","60.0","16"
"03/12/12 13:48:59","35.3427","57.2","215.6","332","60.0","16"
"03/12/12 13:53:59","35.346","44.5","213.99","315","60.07","16"
"03/12/12 13:58:59","35.3496","38.9","214.48","303","59.96","17"
"03/12/12 14:03:58","35.3532","32.9","214.61","293","60.03","17"
"03/12/12 14:08:58","35.3562","47.1","214.28","120","60.03","17"
"03/12/12 14:13:58","35.3613","122.0","214.96","576","60.03","17"
"03/12/12 14:18:59","35.3736","161.3","216.35","745","60.03","18"
"03/12/12 14:23:59","35.3823","97.7","214.76","473","60.0","18"
"03/12/12 14:28:59","35.3888","72.7","215.44","365","60.03","18"
"03/12/12 14:33:58","35.3935","44.0","213.77","381","60.03","18"
"03/12/12 14:38:59","35.3972","43.5","213.98","358","60.03","18"
"03/12/12 14:43:58","35.4011","53.5","213.61","321","60.0","18"
"03/12/12 14:48:59","35.405","48.1","213.27","427","60.0","18"
"03/12/12 14:53:59","35.409","48.3","214.67","124","60.0","18"
"03/12/12 14:58:59","35.4143","93.2","215.88","446","60.07","18"
"03/12/12 15:03:58","35.4238","114.1","215.96","538","60.0","19"
"03/12/12 15:08:59","35.4317","130.0","216.35","607","60.03","19"
"03/12/12 15:13:58","35.4416","129.5","216.19","608","60.07","20"
"03/12/12 15:18:58","35.4514","130.3","215.45","605","60.0","21"
"03/12/12 15:23:58","35.4627","161.2","216.21","742","60.03","22"
"03/12/12 15:28:58","35.4754","180.5","216.78","827","60.03","23"
"03/12/12 15:33:58","35.4888","187.0","216.94","847","60.03","24"
"03/12/12 15:38:59","35.5018","152.5","217.14","701","60.03","24"
"03/12/12 15:43:59","35.5131","137.4","216.49","635","60.03","25"
"03/12/12 15:48:58","35.524","147.1","215.81","678","60.03","25"
"03/12/12 15:53:58","35.5338","116.9","215.93","557","60.03","24"
"03/12/12 15:58:59","35.5412","33.5","214.45","182","60.03","24"
"03/12/12 16:03:59","35.5469","84.5","215.66","411","60.03","23"
"03/12/12 16:08:58","35.5511","32.4","214.12","117","60.0","22"
"03/12/12 16:13:58","35.5532","27.0","213.79","75","60.0","21"
"03/12/12 16:18:58","35.5547","20.7","213.14","170","60.03","20"
"03/12/12 16:23:58","35.5561","13.5","214.36","290","60.03","20"
"03/12/12 16:28:58","35.5579","22.8","214.93","203","60.0","19"
"03/12/12 16:33:59","35.5598","31.2","214.5","96","60.03","19"
"03/12/12 16:38:59","35.5631","39.2","214.93","316","60.03","19"
"03/12/12 16:43:59","35.5668","43.3","214.94","220","60.03","19"
"03/12/12 16:48:58","35.5693","27.8","215.25","180","60.03","19"
"03/12/12 16:53:59","35.5711","21.4","214.44","156","60.07","19"
"03/12/12 16:58:58","35.573","32.8","214.5","72","60.07","19"
"03/12/12 17:03:58","35.5755","46.4","214.48","147","60.07","19"
"03/12/12 17:08:59","35.5784","24.2","212.91","190","60.03","19"
"03/12/12 17:13:59","35.5792","9.4","213.19","248","60.0","18"
"03/12/12 17:18:59","35.5799","12.0","212.6","34","60.03","18"
"03/12/12 17:24:00","35.5802","3.9","213.16","206","60.03","18"
"03/12/12 17:28:58","35.5806","0.0","212.62","0","60.07","17"
"03/12/12 17:33:58","35.5809","0.0","212.97","0","60.03","17"
"03/12/12 17:38:59","35.5814","9.8","213.17","0","60.03","17"
"03/12/12 17:43:59","35.582","11.7","213.87","47","60.0","17"
"03/12/12 17:48:59","35.5824","0.0","213.26","0","60.0","16"
"03/13/12 08:08:59","35.5835","12.4","213.44","3","60.0","7"
"03/13/12 08:13:58","35.5845","20.7","213.25","253","60.0","7"
"03/13/12 08:18:59","35.5865","27.5","214.22","33","60.03","7"
"03/13/12 08:23:59","35.5888","31.7","214.0","152","60.03","8"
"03/13/12 08:28:59","35.5953","101.6","215.26","489","60.03","9"
"03/13/12 08:33:59","35.603","96.8","215.24","469","60.0","9"
"03/13/12 08:38:58","35.6118","91.0","214.55","443","60.03","10"
"03/13/12 08:43:59","35.6205","42.5","214.15","350","60.03","11"
"03/13/12 08:48:58","35.6286","133.4","215.82","623","60.0","11"
"03/13/12 08:53:59","35.6366","125.5","215.28","590","60.03","11"
"03/13/12 08:58:58","35.6424","70.2","215.09","354","60.03","11"
"03/13/12 09:04:00","35.6488","65.1","214.68","425","60.03","11"
"03/13/12 09:08:59","35.6571","73.9","215.3","365","60.03","12"
"03/13/12 09:13:59","35.6693","165.6","216.7","762","60.03","13"
"03/13/12 09:18:59","35.6817","156.0","215.29","717","60.0","13"
"03/13/12 09:23:59","35.6941","163.7","215.89","751","60.03","13"
"03/13/12 09:29:00","35.7068","164.6","216.3","757","60.03","14"
"03/13/12 09:33:58","35.7198","169.7","216.41","776","60.03","15"
"03/13/12 09:39:00","35.7333","175.4","216.87","799","60.03","15"
"03/13/12 09:43:58","35.7471","178.7","217.49","816","60.03","15"
"03/13/12 09:49:00","35.7613","184.2","216.93","841","60.0","15"
"03/13/12 09:53:58","35.7758","189.9","217.72","850","60.03","15"
"03/13/12 09:58:59","35.7907","194.2","217.78","875","60.0","15"
"03/13/12 10:03:58","35.806","197.5","217.36","893","60.03","16"
"03/13/12 10:09:00","35.8215","197.3","215.81","882","60.0","16"
"03/13/12 10:13:59","35.8368","196.9","217.49","891","60.03","16"
"03/13/12 10:18:59","35.8521","197.3","218.25","894","60.0","16"
"03/13/12 10:23:59","35.8675","197.6","218.42","890","60.03","17"
"03/13/12 10:29:00","35.8828","197.3","218.09","884","60.03","17"
"03/13/12 10:33:59","35.8982","196.8","217.81","893","60.03","17"
"03/13/12 10:39:00","35.9135","197.1","217.77","884","60.03","17"
"03/13/12 10:43:59","35.9288","194.3","217.92","893","60.03","17"
"03/13/12 10:48:59","35.944","195.3","217.51","883","60.03","17"
"03/13/12 10:53:59","35.9593","194.7","218.51","880","60.0","17"
"03/13/12 10:59:00","35.9745","195.7","218.51","854","60.03","17"
"03/13/12 11:04:00","35.9897","196.2","218.7","874","60.0","18"
"03/13/12 11:08:59","35.9897","196.7","218.6","881","60.03","18"
"03/13/12 11:13:59","36.0049","196.4","218.71","893","60.0","18"
"03/13/12 11:18:58","36.0199","192.2","218.89","878","60.03","18"
"03/13/12 11:23:59","36.0351","194.1","217.48","864","60.03","18"
"03/13/12 11:29:00","36.0501","193.2","217.68","879","60.0","18"
"03/13/12 11:33:58","36.0651","193.5","218.15","859","60.03","18"
"03/13/12 11:38:58","36.0801","192.5","218.7","858","60.07","18"
"03/13/12 11:43:59","36.0952","191.8","218.59","868","60.0","18"
"03/13/12 11:49:00","36.1103","191.2","218.56","873","60.03","18"
"03/13/12 11:53:59","36.1253","191.5","218.05","880","60.0","18"
"03/13/12 11:58:59","36.1402","188.5","217.76","888","60.0","18"
"03/13/12 12:04:00","36.1552","195.0","217.52","902","60.03","18"
"03/13/12 12:08:59","36.17","190.2","217.69","850","59.96","18"
"03/13/12 12:14:00","36.1851","190.3","217.34","840","60.07","18"
"03/13/12 12:18:59","36.1999","190.1","218.07","867","60.07","18"
"03/13/12 12:23:58","36.2149","191.5","217.76","857","60.07","18"
"03/13/12 12:28:59","36.2298","190.4","217.14","872","60.0","18"
"03/13/12 12:33:59","36.2448","189.9","217.77","857","60.03","18"
"03/13/12 12:38:59","36.2598","193.4","217.28","871","60.03","18"
"03/13/12 12:43:59","36.2747","190.6","218.1","863","60.03","18"
"03/13/12 12:48:59","36.2896","193.1","218.39","845","60.03","19"
"03/13/12 12:54:00","36.3047","192.4","218.77","865","60.03","19"
"03/13/12 12:58:59","36.3195","190.9","218.92","859","60.07","19"
"03/13/12 13:03:58","36.3345","191.3","217.94","874","60.0","19"
"03/13/12 13:08:59","36.3495","193.2","217.7","870","60.03","19"
"03/13/12 13:13:59","36.3645","192.1","218.0","875","60.03","19"
"03/13/12 13:18:59","36.3795","194.5","218.31","881","60.0","19"
"03/13/12 13:23:58","36.3945","190.2","218.12","875","60.07","18"
"03/13/12 13:28:58","36.4095","193.0","217.27","884","60.03","19"
"03/13/12 13:34:00","36.4245","192.7","217.36","874","60.0","19"
"03/13/12 13:38:59","36.4395","195.5","218.07","881","60.03","19"
"03/13/12 13:43:59","36.4547","192.0","218.17","884","60.0","19"
"03/13/12 13:49:00","36.4698","195.6","217.57","861","60.0","19"
"03/13/12 13:53:59","36.4849","195.9","218.44","874","60.03","19"
"03/13/12 13:58:59","36.5001","194.2","218.93","886","60.03","19"
"03/13/12 14:03:59","36.5153","195.2","217.64","892","60.03","19"
"03/13/12 14:08:59","36.5305","195.1","217.56","880","60.03","19"
"03/13/12 14:13:59","36.5458","195.1","218.02","881","60.0","19"
"03/13/12 14:19:00","36.5611","197.9","218.52","864","60.03","20"
"03/13/12 14:24:00","36.5765","195.4","218.0","881","60.03","20"
"03/13/12 14:29:00","36.5918","196.6","218.43","871","60.0","20"
"03/13/12 14:34:00","36.6071","196.3","217.63","890","60.03","20"
"03/13/12 14:38:59","36.6225","196.9","217.16","878","60.0","20"
"03/13/12 14:43:59","36.6378","195.7","217.4","893","60.0","20"
"03/13/12 14:49:00","36.6532","196.5","217.4","892","60.0","20"
"03/13/12 14:53:59","36.6685","196.9","218.08","886","60.03","20"
"03/13/12 14:59:00","36.6839","197.6","218.53","880","60.0","20"
"03/13/12 15:03:59","36.6991","195.1","217.11","877","60.0","20"
"03/13/12 15:08:59","36.7142","191.8","217.42","870","60.03","20"
"03/13/12 15:13:58","36.729","188.3","216.72","860","60.03","20"
"03/13/12 15:18:59","36.7435","184.1","217.01","836","60.0","20"
"03/13/12 15:23:59","36.7577","180.4","217.04","813","60.0","20"
"03/13/12 15:28:59","36.7714","175.5","216.87","799","60.03","19"
"03/13/12 15:33:59","36.785","171.4","216.78","785","60.03","19"
"03/13/12 15:39:00","36.7981","166.0","216.33","761","60.03","19"
"03/13/12 15:44:00","36.8109","161.9","215.76","746","60.03","19"
"03/13/12 16:02:39","36.8551","142.3","215.25","664","60.03","18"
"03/13/12 16:07:39","36.8659","136.9","215.51","641","60.03","18"
"03/13/12 16:12:38","36.8764","131.9","215.94","614","60.0","18"
"03/13/12 16:17:38","36.8864","126.4","215.35","593","60.0","18"
"03/13/12 16:22:39","36.8961","120.5","215.06","571","60.0","18"
"03/13/12 16:27:39","36.9052","115.3","215.19","551","60.03","18"
"03/13/12 16:32:39","36.914","109.8","214.82","523","60.03","18"
"03/13/12 16:37:39","36.9223","104.1","215.13","496","60.03","18"
"03/13/12 16:42:39","36.9301","96.4","213.9","463","60.0","18"
"03/13/12 16:47:38","36.9373","88.4","214.24","433","60.03","17"
"03/13/12 16:57:40","36.9499","72.5","214.05","363","60.03","17"
"03/13/12 17:02:39","36.955","49.4","213.54","265","60.03","17"
"03/13/12 17:07:38","36.9588","48.6","213.33","78","60.07","17"
"03/13/12 17:12:39","36.9628","40.4","212.93","360","60.03","17"
"03/13/12 17:17:38","36.9667","55.6","213.72","88","60.03","17"
"03/13/12 17:22:38","36.9706","55.3","213.68","340","60.0","17"
"03/13/12 17:27:40","36.9744","50.6","213.74","375","60.03","17"
"03/13/12 17:32:39","36.9778","44.4","214.1","306","60.03","16"
"03/13/12 17:37:39","36.9806","31.7","213.88","164","60.03","16"
"03/13/12 17:42:39","36.9832","26.5","213.15","253","60.0","15"
"03/13/12 17:47:39","36.9854","14.4","213.26","179","60.03","15"
"03/13/12 17:52:38","36.9872","30.7","213.6","212","60.03","15"
"03/13/12 17:57:40","36.9887","13.2","213.7","18","60.07","15"
"03/13/12 18:02:39","36.9899","15.4","213.15","176","60.07","14"
"03/13/12 18:07:38","36.9908","14.0","212.74","25","60.03","14"
"03/13/12 18:12:40","36.9915","10.4","213.25","2","60.03","14"
"03/13/12 18:17:40","36.9919","9.9","213.11","136","60.0","13"
"03/13/12 18:22:39","36.9922","0.0","213.01","0","60.03","13"
"03/14/12 12:26:01","37.6253","192.7","217.43","891","60.03","27"
"03/14/12 12:31:00","37.6402","195.3","215.67","890","60.03","28"
"03/14/12 12:36:00","37.6554","195.1","217.07","885","60.0","29"
"03/14/12 12:41:01","37.6707","195.1","218.51","883","60.03","29"
"03/14/12 12:46:00","37.6859","194.6","218.19","881","60.07","30"
"03/14/12 12:51:00","37.701","187.9","217.85","848","60.03","30"
"03/14/12 12:56:01","37.7094","54.2","215.02","371","60.03","28"
"03/14/12 13:01:01","37.7232","164.4","216.7","748","60.03","29"
"03/14/12 13:05:59","37.7382","194.4","218.21","883","60.0","29"
"03/14/12 13:11:00","37.7534","195.0","218.03","884","60.03","30"
"03/14/12 13:16:01","37.7687","195.9","217.84","881","60.0","31"
"03/14/12 13:21:01","37.7837","196.1","217.64","879","60.0","31"
"03/14/12 13:26:01","37.799","195.4","217.95","887","60.0","32"
"03/14/12 13:31:01","37.8136","196.0","217.54","886","60.0","32"
"03/14/12 13:35:59","37.8253","195.7","216.65","886","60.0","32"
"03/14/12 13:41:00","37.8386","161.3","216.23","739","60.0","32"
"03/14/12 13:46:01","37.8536","194.6","217.64","890","60.03","32"
"03/14/12 13:51:01","37.8689","195.4","217.83","893","60.03","32"
"03/14/12 13:56:00","37.8839","194.7","218.14","881","60.07","33"
"03/14/12 14:01:00","37.8991","194.6","217.91","883","60.0","34"
"03/14/12 14:06:00","37.9143","195.4","217.79","887","60.03","34"
"03/14/12 14:11:01","37.9295","195.0","217.46","884","60.03","34"
"03/14/12 14:16:01","37.9448","195.5","217.21","890","60.0","35"
"03/14/12 14:21:00","37.9599","194.6","217.79","882","60.0","36"
"03/14/12 14:26:01","37.9751","192.5","217.56","874","60.07","36"
"03/14/12 14:31:00","37.9899","190.3","218.73","862","60.03","36"
"03/14/12 14:36:00","38.0047","190.2","217.82","861","60.03","36"
"03/14/12 14:41:01","38.0195","187.3","217.97","845","60.03","36"
"03/14/12 14:46:00","38.0339","184.9","217.39","839","60.0","36"
"03/14/12 14:51:00","38.0482","181.7","217.99","817","60.03","36"
"03/14/12 14:56:01","38.0624","179.0","218.02","815","60.03","35"
"03/14/12 15:00:59","38.0761","176.1","217.77","791","60.03","35"
"03/14/12 15:06:01","38.0897","169.6","216.97","775","60.0","36"
"03/14/12 15:11:01","38.1027","164.4","217.79","752","60.0","36"
"03/14/12 15:16:00","38.1154","161.3","216.8","737","60.03","35"
"03/14/12 15:21:00","38.1277","157.9","216.6","727","60.03","35"
"03/14/12 15:26:01","38.1401","154.9","215.83","716","60.03","35"
"03/14/12 15:31:01","38.152","150.8","216.03","701","60.03","35"
"03/14/12 15:36:01","38.1634","136.3","216.41","634","60.03","34"
"03/14/12 15:40:59","38.1736","128.1","215.63","599","60.0","34"
"03/14/12 15:45:59","38.1834","122.0","216.42","575","60.03","35"
"03/14/12 15:51:01","38.1926","113.0","215.37","533","60.03","35"
"03/14/12 15:56:01","38.2016","118.1","215.08","561","60.03","35"
"03/14/12 16:01:01","38.2107","114.3","215.81","542","60.07","35"
"03/14/12 16:05:59","38.2195","116.0","216.21","548","60.03","35"
"03/14/12 16:11:00","38.228","109.0","215.62","519","60.03","35"
"03/14/12 16:16:01","38.2364","102.3","216.17","488","60.03","35"
"03/14/12 16:21:00","38.2439","95.3","215.33","461","60.03","35"
"03/14/12 16:26:01","38.2514","89.8","215.29","437","60.03","35"
"03/14/12 16:31:01","38.2583","85.7","214.83","420","60.03","35"
"03/14/12 16:36:01","38.2649","87.1","214.07","426","60.0","35"
"03/14/12 16:41:01","38.2714","84.1","214.61","413","60.03","34"
"03/14/12 16:46:01","38.2777","76.1","214.78","377","60.0","33"
"03/14/12 16:51:01","38.2833","66.5","215.15","332","60.03","32"
"03/14/12 16:55:59","38.2885","65.2","213.97","331","60.0","31"
"03/14/12 17:01:00","38.2933","62.6","213.94","403","60.07","30"
"03/14/12 17:06:00","38.2974","57.8","214.62","179","60.07","29"
"03/14/12 17:11:01","38.3012","40.3","213.87","215","60.03","28"
"03/14/12 17:15:59","38.3042","31.8","213.81","202","60.03","27"
"03/14/12 17:21:01","38.3071","35.7","213.56","128","60.0","26"
"03/14/12 17:26:01","38.3102","40.8","213.74","292","60.03","26"
"03/14/12 17:30:59","38.3128","32.7","213.76","146","60.03","25"
"03/14/12 17:36:00","38.315","26.6","213.35","246","60.0","25"
"03/14/12 17:41:00","38.3166","17.4","213.41","3","60.03","24"
"03/14/12 17:46:00","38.3178","14.9","213.15","16","60.03","24"
"03/14/12 17:51:01","38.3186","15.3","213.5","0","60.03","23"
"03/14/12 17:56:01","38.3194","0.0","212.92","27","60.03","23"
"03/14/12 18:01:01","38.32","13.5","212.6","3","60.03","22"
"03/14/12 18:06:01","38.3207","14.5","213.55","1","60.03","21"
"03/14/12 18:11:00","38.3213","6.2","212.35","236","60.03","20"
"03/14/12 18:16:01","38.3219","15.4","213.22","0","60.03","20"
"03/14/12 18:21:00","38.3223","4.0","213.06","0","60.03","20"
"03/14/12 18:26:00","38.3228","10.8","213.55","131","60.03","19"
"03/14/12 18:31:01","38.323","0.0","212.88","0","60.0","19"
"03/15/12 07:26:02","38.3238","14.1","213.54","3","60.03","8"
"03/15/12 07:36:00","38.326","21.6","214.17","194","60.0","9"
"03/15/12 07:41:01","38.3279","36.0","214.43","136","60.0","9"
"03/15/12 07:46:01","38.33","27.4","214.8","183","60.03","9"
"03/15/12 07:51:00","38.3323","32.8","213.75","212","60.03","10"
"03/15/12 07:56:01","38.3349","30.3","212.33","173","60.0","10"
"03/15/12 08:01:00","38.3377","36.5","214.74","193","60.03","11"
"03/15/12 08:06:00","38.3413","50.2","215.51","326","60.03","11"
"03/15/12 08:11:01","38.3451","57.1","214.89","157","60.03","11"
"03/15/12 08:16:01","38.349","39.7","215.43","367","60.03","11"
"03/15/12 08:21:02","38.3528","57.8","215.28","176","60.03","12"
"03/15/12 08:26:00","38.3567","51.5","215.02","199","60.03","13"
"03/15/12 08:31:00","38.3609","62.2","215.72","339","60.0","13"
"03/15/12 08:36:01","38.3647","62.6","215.67","124","60.0","13"
"03/15/12 08:41:00","38.3686","46.0","214.79","325","60.0","13"
"03/15/12 08:46:00","38.3726","39.4","215.84","131","60.03","13"
"03/15/12 08:51:00","38.3781","89.7","216.48","432","60.0","14"
"03/15/12 08:56:00","38.385","88.1","216.3","431","60.03","14"
"03/15/12 09:01:01","38.3919","89.7","216.06","435","60.0","15"
"03/15/12 09:06:01","38.3992","99.9","215.34","479","60.03","15"
"03/15/12 09:11:00","38.4066","86.0","215.87","420","60.03","15"
"03/15/12 09:16:01","38.4127","74.9","215.76","370","60.03","15"
"03/15/12 09:21:01","38.4184","69.8","216.2","345","60.03","15"
"03/15/12 09:26:02","38.424","86.4","216.26","422","60.03","15"
"03/15/12 09:31:00","38.431","87.2","216.27","421","60.0","15"
"03/15/12 09:36:00","38.4382","92.1","216.05","443","59.96","15"
"03/15/12 09:41:01","38.4456","94.0","216.8","451","60.0","16"
"03/15/12 09:46:01","38.4537","109.0","216.89","518","60.03","16"
"03/15/12 09:51:00","38.462","116.8","216.66","547","60.0","17"
"03/15/12 09:56:01","38.4715","125.0","217.55","582","60.0","17"
"03/15/12 10:01:00","38.4816","131.9","217.15","616","60.0","18"
"03/15/12 10:06:00","38.4911","108.8","217.53","516","60.03","18"
"03/15/12 10:11:01","38.4988","95.0","216.66","459","60.03","18"
"03/15/12 10:16:01","38.5058","82.1","216.9","400","60.0","18"
"03/15/12 10:21:01","38.5131","100.6","216.4","483","60.03","18"
"03/15/12 10:26:01","38.5214","103.2","216.76","491","60.03","18"
"03/15/12 10:31:00","38.5292","94.3","215.44","457","60.03","18"
"03/15/12 10:36:01","38.5361","83.3","214.61","406","60.03","18"
"03/15/12 10:41:02","38.5433","105.2","214.95","502","60.03","18"
"03/15/12 10:46:00","38.5512","109.6","216.04","521","60.03","18"
"03/15/12 10:51:00","38.5604","132.1","216.36","619","60.03","18"
"03/15/12 10:56:00","38.572","152.4","217.33","704","60.03","19"
"03/15/12 11:01:01","38.5839","155.9","216.47","715","60.0","20"
"03/15/12 11:06:01","38.5973","174.3","216.65","797","60.03","21"
"03/15/12 11:11:00","38.6108","170.9","216.65","779","60.03","22"
"03/15/12 11:16:01","38.6251","193.2","217.34","877","60.03","23"
"03/15/12 11:21:01","38.6402","194.9","218.17","876","60.0","24"
"03/15/12 11:26:00","38.6552","196.0","217.85","884","60.0","25"
"03/15/12 11:31:01","38.6705","195.9","218.33","884","60.03","25"
"03/15/12 11:36:01","38.6851","175.5","216.12","804","60.03","26"
"03/15/12 11:41:02","38.6984","173.6","216.62","797","60.03","25"
"03/15/12 11:46:00","38.7115","175.0","216.03","798","60.0","25"
"03/15/12 11:51:01","38.725","170.6","216.65","778","60.0","26"
"03/15/12 11:56:00","38.7381","195.7","217.29","895","60.07","26"
"03/15/12 12:01:00","38.7534","195.2","217.08","886","60.0","27"
"03/15/12 12:11:01","38.7839","195.2","216.87","874","60.0","28"
"03/15/12 12:16:02","38.7992","195.2","216.71","890","60.03","29"
"03/15/12 12:21:00","38.8142","177.4","216.18","811","60.03","30"
"03/15/12 12:26:00","38.8288","195.9","216.85","892","60.03","31"
"03/15/12 12:31:01","38.844","196.0","217.86","884","60.0","31"
"03/15/12 12:36:01","38.8593","195.7","217.53","883","60.0","32"
"03/15/12 12:41:02","38.8745","195.2","217.6","881","60.0","33"
"03/15/12 12:46:00","38.8896","195.0","217.03","879","60.0","34"
"03/15/12 12:51:01","38.9048","194.8","217.0","887","60.03","34"
"03/15/12 12:56:01","38.9201","194.6","217.58","883","60.03","35"
"03/15/12 13:01:02","38.9352","180.0","217.7","809","60.0","35"